Regional Weather Roundup
Issued by NWS Kansas City/Pleasant Hill, MO

Home | Current Version | Previous Version | Text Only | Print | Product List | Glossary On
Versions: 1 2 3 4 5 6 7 8 9 10 11 12 13 14 15 16 17 18 19 20 21 22 23 24 25 26 27 28 29 30 31 32 33 34 35 36 37 38 39 40 41 42 43 44 45 46 47 48 49 50
000
ASUS43 KEAX 082110
RWREAX

WEATHER ROUNDUP FOR EASTERN KANSAS AND NORTHWEST MISSOURI
NATIONAL WEATHER SERVICE KANSAS CITY/PLEASANT HILL MO
300 PM CST THU DEC 08 2016

KSZ040-057-103>105-MOZ028-029-037-043-082200-
...KANSAS CITY METROPOLITAN AREA...

CITY           SKY/WX    TMP DP  RH WIND       PRES   REMARKS
K.C. INTL      MOSUNNY   25   9  50 NW13      30.59S WCI  14
K.C. DOWNTOWN  SUNNY     27  11  51 W10       30.61S WCI  17
LEES SUMMIT    SUNNY     25  11  55 NW14      30.59S WCI  13
OLATHE - IXD   MOSUNNY   26  12  55 NW14      30.61S WCI  14
OLATHE - OJC   MOSUNNY   25  11  55 NW13      30.59F WCI  14
LAWRENCE       MOSUNNY   25  13  60 NW12      30.63S WCI  14

$$

MOZ001>008-011>017-020>025-030>033-038>040-044>046-053-054-082200-
...NORTHERN AND CENTRAL MISSOURI...

CITY           SKY/WX    TMP DP  RH WIND       PRES   REMARKS
ST. JOSEPH     SUNNY     25  10  53 NW16      30.62R WCI  12
MOSBY          CLEAR     27  10  50 NW14      30.60S WCI  15
WARRENSBURG    SUNNY     27  12  54 W7G17     30.59S WCI  19
WHITEMAN AFB   MOSUNNY   26  12  54 NW14G20   30.57R WCI  15
CLINTON        SUNNY     28  14  54 NW10      30.60R WCI  19
SEDALIA        PTSUNNY   26  13  57 W15       30.58R WCI  14
WARSAW         NOT AVBL
CHILLICOTHE      N/A     27  11  51 NW10G17   30.58R WCI  17
KIRKSVILLE     SUNNY     25  10  53 W17       30.52R WCI  12

$$

MOZ041-047>049-056>058-063>065-088>090-097-082200-
...EASTERN AND SOUTHERN MISSOURI...

CITY           SKY/WX    TMP DP  RH WIND       PRES   REMARKS
ST. LOUIS INTL MOSUNNY   30  11  45 W21G26    30.49R WCI  17
SPIRIT OF STL  MOSUNNY   30  13  49 NW15      30.51R WCI  19
COLUMBIA       SUNNY     27  11  51 NW13      30.53R WCI  16
JEFFERSON CITY SUNNY     28  12  51 NW13      30.56R WCI  17
ROLLA          FLURRIES  28  12  51 W14G25    30.49R WCI  17
OSAGE BEACH    SUNNY     31  14  49 W13G21    30.55R WCI  21
SPRINGFIELD    SUNNY     29  13  51 NW13      30.55S WCI  19
BRANSON        MOSUNNY   32   9  37 NW10      30.54F WCI  24
JOPLIN         SUNNY     29  13  51 NW13      30.62S WCI  19
WEST PLAINS    SUNNY     33  11  39 W15G24    30.50S WCI  23

$$

IAZ060-094-KSZ022-034>040-054-083-096-NEZ052-066-093-082200-
...KANSAS...SOUTHEAST NEBRASKA AND IOWA...

CITY           SKY/WX    TMP DP  RH WIND       PRES   REMARKS
TOPEKA         SUNNY     27  12  53 NW12      30.63F WCI  17
MANHATTAN      SUNNY     28  10  46 VRB7      30.65S WCI  21
EMPORIA        SUNNY     27  11  51 NW13      30.62F WCI  16
CHANUTE        SUNNY     29  15  56 N12       30.63S WCI  19
WICHITA        MOSUNNY   30   7  37 N12       30.63F WCI  20
OMAHA          MOSUNNY   25   8  48 NW15      30.60R WCI  13
LINCOLN        SUNNY     27   8  44 N14       30.62S WCI  16
FALLS CITY     SUNNY     25   9  50 NW15      30.61S WCI  13
LAMONI         SUNNY     24  10  55 NW17      30.53R WCI  11
DES MOINES     MOSUNNY   25  10  53 NW20      30.51R WCI  11

$$




USA.gov is the U.S. government's official web portal to all federal, state and local government web resources and services.